Flag for Germany Weather past 2 weeks in Georgsmarienhütte, Lower Saxony, Germany

Now
52 °F

Partly sunny.


Feels Like: 49 °F
Forecast: 33 / 51 °F
Wind: 9 mph from Northeast

Location: Muenster / Osnabrueck

Current Time: Apr 27, 2015 at 3:54:47 PM

Latest Report: Apr 27, 2015 at 3:20 PM


Visibility: N/A

Pressure: 29.77 "Hg

Humidity: 58%

Dew point: 37 °F

Location of GeorgsmarienhütteLocation

Historic Weather in Georgsmarienhütte — Graph

°F

Georgsmarienhütte temperature yesterday

Maximum temperature yesterday: 63 °F (at 1:20 PM)
Minimum temperature yesterday: 50 °F (at 2:20 AM)
Average temperature yesterday: 55 °F

Past Weeks' High & Low Weather Summary

 TemperatureHumidityPressure
High73 °F (Apr 15, 2:50 PM)100% (Apr 15, 6:20 AM)30.45 "Hg (Apr 15, 6:20 AM)
Low32 °F (Apr 18, 5:50 AM)28% (Apr 21, 3:20 PM)29.65 "Hg (Apr 27, 2:20 AM)
Average51 °F70%30.11 "Hg
* Reported Apr 12 2:20 PM — Apr 27 2:20 PM, Georgsmarienhütte, Weather by CustomWeather, © 2015

Note: Actual official high and low records may vary slightly from our data, if they occured in-between our weather recording intervals... More about our weather records

Advertising

Georgsmarienhütte weather history for previous 24 hours

 ConditionsComfort  
Time TempWeatherWind HumidityBarometerVisibility
2:20 PM
Mon, Apr 27
50 °FPartly sunny.7 mph62%29.77 "HgN/A
1:50 PM50 °FPartly sunny.8 mph67%29.77 "HgN/A
1:20 PM50 °FPartly sunny.10 mph62%29.77 "HgN/A
12:50 PM48 °FPartly sunny.8 mph62%29.77 "HgN/A
12:20 PM48 °FPartly sunny.10 mph66%29.77 "HgN/A
11:50 AM48 °FPartly sunny.12 mph71%29.77 "HgN/A
11:20 AM46 °FPartly sunny.12 mph71%29.74 "HgN/A
10:50 AM46 °FPartly sunny.10 mph76%29.74 "HgN/A
10:20 AM46 °FBroken clouds.9 mph82%29.71 "HgN/A
9:50 AM45 °FBroken clouds.7 mph87%29.71 "HgN/A
9:20 AM45 °FBroken clouds.7 mph93%29.71 "HgN/A
8:50 AM45 °FBroken clouds.7 mph93%29.71 "HgN/A
8:20 AM45 °FBroken clouds.12 mph87%29.68 "HgN/A
7:50 AM43 °FLight rain. Partly sunny.12 mph93%29.68 "HgN/A
7:20 AM43 °FLight rain. Broken clouds.10 mph100%29.68 "Hg5 mi
6:50 AM45 °FLight rain. Fog.9 mph100%29.65 "Hg4 mi
6:20 AM45 °FLight rain. Fog.12 mph100%29.65 "Hg3 mi
5:20 AM46 °FLight rain. Fog.8 mph100%29.65 "Hg3 mi
4:50 AM46 °FRain. Fog.8 mph100%29.65 "Hg3 mi
4:20 AM46 °FLight rain. Fog.8 mph100%29.65 "Hg3 mi
3:50 AM46 °FLight rain. Fog.8 mph100%29.65 "Hg3 mi
3:20 AM46 °FLight rain. Fog.7 mph100%29.65 "Hg3 mi
2:50 AM48 °FLight rain. Fog.6 mph100%29.65 "Hg3 mi
2:20 AM48 °FLight rain. Fog.7 mph100%29.65 "Hg3 mi
1:50 AM48 °FRain. Fog.6 mph100%29.68 "Hg2 mi
1:20 AM48 °FLight rain. Fog.7 mph100%29.68 "Hg3 mi
12:50 AM48 °FLight rain. Fog.6 mph100%29.68 "Hg3 mi
12:20 AM50 °FLight rain. Fog.6 mph100%29.68 "Hg3 mi
11:50 PM
Sun, Apr 26
50 °FLight rain. Fog.7 mph100%29.68 "Hg3 mi
11:20 PM50 °FLight rain. Passing clouds.8 mph100%29.68 "Hg4 mi
10:50 PM50 °FPassing clouds.7 mph100%29.68 "Hg4 mi
10:20 PM50 °FPassing clouds.6 mph100%29.68 "Hg3 mi
9:50 PM52 °FPassing clouds.6 mph100%29.68 "Hg4 mi
9:20 PM52 °FBroken clouds.5 mph100%29.68 "Hg4 mi
8:50 PM52 °FLight rain. Partly sunny.5 mph100%29.68 "Hg4 mi
8:20 PM52 °FLight rain. Broken clouds.5 mph100%29.68 "Hg4 mi
7:50 PM52 °FLight rain. Fog.5 mph100%29.68 "Hg3 mi
7:20 PM54 °FLight rain. Fog.8 mph94%29.68 "Hg2 mi
6:50 PM54 °FLight rain. Broken clouds.8 mph94%29.68 "Hg3 mi
6:20 PM55 °FSprinkles. Broken clouds.8 mph88%29.68 "Hg4 mi
5:50 PM59 °FSprinkles. Broken clouds.8 mph77%29.68 "HgN/A
5:20 PM61 °FBroken clouds.7 mph72%29.68 "HgN/A
4:50 PM59 °FBroken clouds.6 mph77%29.68 "HgN/A
4:20 PM61 °FBroken clouds.8 mph72%29.68 "HgN/A
3:50 PM61 °FBroken clouds.10 mph72%29.68 "HgN/A
3:20 PM63 °FScattered clouds.10 mph59%29.68 "HgN/A
Weather by CustomWeather, © 2015

See weather overviewHow to use our weather pages